,,,PA_Meas_PMT16A,,PR_Meas_QMR101_102,,RH_Meas_QMH101,,SR_Meas_QMS101,,TA_Meas_QMH101,,GenWind,,GenWind,
date,time,status,PA,status,PR,status,RH,status,SR,status,TA,status,DirAvg,status,SpdAvg,
2008-10-27, 00:00:04,VALID,1011.54,VALID,0,VALID,94.689,VALID,0,VALID,23.9278,VALID,35,VALID,0.141016,
2008-10-27, 00:01:04,VALID,1011.55,VALID,0,VALID,94.7195,VALID,0,VALID,23.926,VALID,36,VALID,0.313281,
2008-10-27, 00:02:04,VALID,1011.54,VALID,0,VALID,94.7424,VALID,0,VALID,23.9473,VALID,30,VALID,0.780859,
2008-10-27, 00:03:04,VALID,1011.53,VALID,0,VALID,94.7271,VALID,0,VALID,23.9065,VALID,37,VALID,0.560547,
2008-10-27, 00:04:04,VALID,1011.5,VALID,0,VALID,94.7347,VALID,0,VALID,23.9278,VALID,56,VALID,0.544531,
2008-10-27, 00:05:04,VALID,1011.49,VALID,0,VALID,94.7424,VALID,0.105969,VALID,23.9278,VALID,66,VALID,0.730859,
2008-10-27, 00:06:04,VALID,1011.48,VALID,0,VALID,94.7347,VALID,0,VALID,23.9278,VALID,77,VALID,0.35625,
2008-10-27, 00:07:04,VALID,1011.5,VALID,0,VALID,94.7347,VALID,0,VALID,23.9065,VALID,70,VALID,0.588672,
2008-10-27, 00:08:04,VALID,1011.49,VALID,0,VALID,94.7271,VALID,0,VALID,23.9084,VALID,73,VALID,0.439844,
2008-10-27, 00:09:04,VALID,1011.47,VALID,0,VALID,94.7424,VALID,0,VALID,23.8889,VALID,53,VALID,0.324609,
2008-10-27, 00:10:04,VALID,1011.47,VALID,0,VALID,94.7347,VALID,0,VALID,23.9084,VALID,74,VALID,0.485938,
2008-10-27, 00:11:04,VALID,1011.45,VALID,0,VALID,94.7271,VALID,0,VALID,23.8889,VALID,65,VALID,0.876562,
2008-10-27, 00:12:04,VALID,1011.4,VALID,0,VALID,94.75,VALID,0,VALID,23.8889,VALID,77,VALID,0.823438,
2008-10-27, 00:13:04,VALID,1011.4,VALID,0,VALID,94.7424,VALID,0,VALID,23.9084,VALID,65,VALID,0.539063,
2008-10-27, 00:14:04,VALID,1011.38,VALID,0,VALID,94.7271,VALID,0,VALID,23.8889,VALID,61,VALID,0.667188,
2008-10-27, 00:15:04,VALID,1011.36,VALID,0,VALID,94.7271,VALID,0,VALID,23.8694,VALID,58,VALID,0.927734,
2008-10-27, 00:16:04,VALID,1011.36,VALID,0,VALID,94.7042,VALID,0,VALID,23.8499,VALID,23,VALID,0.740234,
2008-10-27, 00:17:04,VALID,1011.36,VALID,0,VALID,94.689,VALID,0,VALID,23.8499,VALID,68,VALID,0.856641,
2008-10-27, 00:18:04,VALID,1011.34,VALID,0,VALID,94.689,VALID,0,VALID,23.7896,VALID,67,VALID,0.564453,
2008-10-27, 00:19:04,VALID,1011.37,VALID,0,VALID,94.689,VALID,0,VALID,23.8499,VALID,78,VALID,0.794141,
2008-10-27, 00:20:04,VALID,1011.33,VALID,0,VALID,94.689,VALID,0,VALID,23.8304,VALID,50,VALID,0.546094,
2008-10-27, 00:21:04,VALID,1011.33,VALID,0,VALID,94.6814,VALID,0,VALID,23.8109,VALID,54,VALID,0.732422,
2008-10-27, 00:22:04,VALID,1011.34,VALID,0,VALID,94.6814,VALID,0,VALID,23.8499,VALID,69,VALID,0.483203,
2008-10-27, 00:23:04,VALID,1011.31,VALID,0,VALID,94.6814,VALID,0,VALID,23.7896,VALID,55,VALID,0.787109,
2008-10-27, 00:24:04,VALID,1011.3,VALID,0,VALID,94.6737,VALID,0,VALID,23.8109,VALID,73,VALID,0.289063,
2008-10-27, 00:25:04,VALID,1011.28,VALID,0,VALID,94.6585,VALID,0,VALID,23.8109,VALID,74,VALID,0.819141,
2008-10-27, 00:26:04,VALID,1011.26,VALID,0,VALID,94.6661,VALID,0,VALID,23.8304,VALID,74,VALID,0.837891,
2008-10-27, 00:27:04,VALID,1011.25,VALID,0,VALID,94.6737,VALID,0,VALID,23.7914,VALID,72,VALID,0.866016,
2008-10-27, 00:28:04,VALID,1011.27,VALID,0,VALID,94.6737,VALID,0,VALID,23.8322,VALID,68,VALID,0.6375,
2008-10-27, 00:29:04,VALID,1011.22,VALID,0,VALID,94.6585,VALID,0,VALID,23.7896,VALID,81,VALID,0.657812,
2008-10-27, 00:30:04,VALID,1011.2,VALID,0,VALID,94.6508,VALID,0,VALID,23.8109,VALID,74,VALID,0.777734,
2008-10-27, 00:31:04,VALID,1011.22,VALID,0,VALID,94.6508,VALID,0,VALID,23.8109,VALID,87,VALID,0.552734,
2008-10-27, 00:32:04,VALID,1011.21,VALID,0,VALID,94.6585,VALID,0,VALID,23.8304,VALID,80,VALID,0.745703,
2008-10-27, 00:33:04,VALID,1011.21,VALID,0,VALID,94.6508,VALID,0,VALID,23.8109,VALID,73,VALID,0.5,
2008-10-27, 00:34:04,VALID,1011.21,VALID,0,VALID,94.6203,VALID,0,VALID,23.8109,VALID,41,VALID,0.494141,
2008-10-27, 00:35:04,VALID,1011.21,VALID,0,VALID,94.6432,VALID,0,VALID,23.8109,VALID,41,VALID,0.263281,
2008-10-27, 00:36:04,VALID,1011.19,VALID,0,VALID,94.6203,VALID,0,VALID,23.8109,VALID,69,VALID,0.635156,
2008-10-27, 00:37:04,VALID,1011.17,VALID,0,VALID,94.6051,VALID,0,VALID,23.8109,VALID,50,VALID,0.483203,
2008-10-27, 00:38:04,VALID,1011.15,VALID,0,VALID,94.5898,VALID,0.105969,VALID,23.8091,VALID,67,VALID,0.164453,
2008-10-27, 00:39:04,VALID,1011.16,VALID,0,VALID,94.6051,VALID,0.105969,VALID,23.8091,VALID,67,VALID,0.00195313,
2008-10-27, 00:40:04,VALID,1011.13,VALID,0,VALID,94.5975,VALID,0.105969,VALID,23.7914,VALID,66,VALID,0.238672,
2008-10-27, 00:41:04,VALID,1011.13,VALID,0,VALID,94.5975,VALID,0.105969,VALID,23.7683,VALID,55,VALID,0.41875,
2008-10-27, 00:42:04,VALID,1011.13,VALID,0,VALID,94.5898,VALID,0.105969,VALID,23.7683,VALID,54,VALID,0.270312,
2008-10-27, 00:43:04,VALID,1011.12,VALID,0,VALID,94.6051,VALID,0.105969,VALID,23.7701,VALID,43,VALID,0.373828,
2008-10-27, 00:44:04,VALID,1011.09,VALID,0,VALID,94.5822,VALID,0.105969,VALID,23.7701,VALID,43,VALID,0.071875,
2008-10-27, 00:45:04,VALID,1011.1,VALID,0,VALID,94.5898,VALID,0.105969,VALID,23.7701,VALID,43,VALID,0.410937,
2008-10-27, 00:46:04,VALID,1011.08,VALID,0,VALID,94.628,VALID,0.105969,VALID,23.7701,VALID,45,VALID,0.411328,
2008-10-27, 00:47:04,VALID,1011.08,VALID,0,VALID,94.6127,VALID,0.105969,VALID,23.7312,VALID,46,VALID,0.330859,
2008-10-27, 00:48:04,VALID,1011.07,VALID,0,VALID,94.6203,VALID,0.105969,VALID,23.7117,VALID,46,VALID,0.133984,
2008-10-27, 00:49:04,VALID,1011.07,VALID,0,VALID,94.628,VALID,0.105969,VALID,23.7117,VALID,46,VALID,0.221094,
2008-10-27, 00:50:04,VALID,1011.03,VALID,0,VALID,94.6432,VALID,0,VALID,23.6922,VALID,53,VALID,0.325781,
2008-10-27, 00:51:04,VALID,1011.04,VALID,0,VALID,94.6508,VALID,0,VALID,23.7312,VALID,65,VALID,0.25625,
2008-10-27, 00:52:04,VALID,1011.04,VALID,0,VALID,94.6661,VALID,0.105969,VALID,23.7117,VALID,68,VALID,0.808203,
2008-10-27, 00:53:04,VALID,1011.03,VALID,0,VALID,94.6814,VALID,0,VALID,23.7135,VALID,61,VALID,0.199219,
2008-10-27, 00:54:04,VALID,1011.02,VALID,0,VALID,94.7195,VALID,0,VALID,23.7135,VALID,61,VALID,0.238281,
2008-10-27, 00:55:04,VALID,1011.01,VALID,0,VALID,94.7347,VALID,0,VALID,23.7135,VALID,61,VALID,0.269141,
2008-10-27, 00:56:04,VALID,1011.01,VALID,0,VALID,94.7271,VALID,0,VALID,23.7135,VALID,61,VALID,0.461719,
2008-10-27, 00:57:04,VALID,1011.01,VALID,0,VALID,94.7576,VALID,0,VALID,23.694,VALID,46,VALID,0.342969,
2008-10-27, 00:58:04,VALID,1011.02,VALID,0,VALID,94.75,VALID,0,VALID,23.733,VALID,35,VALID,0.241406,
2008-10-27, 00:59:04,VALID,1011.02,VALID,0,VALID,94.75,VALID,0,VALID,23.7135,VALID,35,VALID,0.239453,
2008-10-27, 01:00:04,VALID,1011.01,VALID,0,VALID,94.7652,VALID,0,VALID,23.733,VALID,35,VALID,0.448047,
2008-10-27, 01:01:04,VALID,1011.02,VALID,0,VALID,94.7805,VALID,0,VALID,23.7135,VALID,43,VALID,0.401172,
2008-10-27, 01:02:04,VALID,1011,VALID,0,VALID,94.7805,VALID,0,VALID,23.733,VALID,43,VALID,0.345703,
2008-10-27, 01:03:04,VALID,1011,VALID,0,VALID,94.7881,VALID,0,VALID,23.7312,VALID,80,VALID,0.625,
2008-10-27, 01:04:04,VALID,1011.03,VALID,0,VALID,94.8186,VALID,0,VALID,23.772,VALID,94,VALID,0.653516,
2008-10-27, 01:05:04,VALID,1011.01,VALID,0,VALID,94.8339,VALID,0,VALID,23.7914,VALID,109,VALID,0.391406,
2008-10-27, 01:06:04,VALID,1011.02,VALID,0,VALID,94.811,VALID,0,VALID,23.8109,VALID,100,VALID,0.699609,
2008-10-27, 01:07:04,VALID,1011.05,VALID,0,VALID,94.8262,VALID,0,VALID,23.8304,VALID,193,VALID,0.630078,
2008-10-27, 01:08:04,VALID,1011.05,VALID,0,VALID,94.8034,VALID,0,VALID,23.8304,VALID,187,VALID,0.536328,
2008-10-27, 01:09:04,VALID,1011.05,VALID,0,VALID,94.8034,VALID,0,VALID,23.8109,VALID,167,VALID,0.585156,
2008-10-27, 01:10:04,VALID,1011.04,VALID,0,VALID,94.7805,VALID,0,VALID,23.7914,VALID,141,VALID,1.03008,
2008-10-27, 01:11:04,VALID,1011.02,VALID,0,VALID,94.7805,VALID,0,VALID,23.772,VALID,147,VALID,0.8875,
2008-10-27, 01:12:04,VALID,1011.01,VALID,0,VALID,94.7729,VALID,0,VALID,23.8109,VALID,157,VALID,0.509766,
2008-10-27, 01:13:04,VALID,1011,VALID,0,VALID,94.7729,VALID,0,VALID,23.7914,VALID,155,VALID,0.7625,
2008-10-27, 01:14:04,VALID,1011.01,VALID,0,VALID,94.7652,VALID,0,VALID,23.772,VALID,120,VALID,0.608203,
2008-10-27, 01:15:04,VALID,1010.98,VALID,0,VALID,94.7652,VALID,0,VALID,23.7525,VALID,138,VALID,0.886719,
2008-10-27, 01:16:04,VALID,1010.98,VALID,0,VALID,94.7729,VALID,0,VALID,23.7135,VALID,133,VALID,0.625781,
2008-10-27, 01:17:04,VALID,1011.01,VALID,0,VALID,94.7805,VALID,0,VALID,23.7135,VALID,161,VALID,0.380859,
2008-10-27, 01:18:04,VALID,1011.01,VALID,0,VALID,94.7652,VALID,0,VALID,23.7135,VALID,155,VALID,0.664453,
2008-10-27, 01:19:04,VALID,1011,VALID,0,VALID,94.7652,VALID,0,VALID,23.7135,VALID,130,VALID,0.432031,
2008-10-27, 01:20:04,VALID,1011,VALID,0,VALID,94.8034,VALID,0,VALID,23.694,VALID,156,VALID,0.51875,
2008-10-27, 01:21:04,VALID,1011.02,VALID,0,VALID,94.8262,VALID,0,VALID,23.7135,VALID,128,VALID,0.639063,
2008-10-27, 01:22:04,VALID,1011.01,VALID,0,VALID,94.8262,VALID,0,VALID,23.6727,VALID,120,VALID,0.592969,
2008-10-27, 01:23:04,VALID,1011.01,VALID,0,VALID,94.8415,VALID,0,VALID,23.655,VALID,102,VALID,0,
2008-10-27, 01:24:04,VALID,1011.01,VALID,0,VALID,94.8491,VALID,0,VALID,23.6745,VALID,114,VALID,0.821875,
2008-10-27, 01:25:04,VALID,1011,VALID,0,VALID,94.8796,VALID,0,VALID,23.6356,VALID,124,VALID,0.705859,
2008-10-27, 01:26:04,VALID,1011.02,VALID,0,VALID,94.8796,VALID,0,VALID,23.6356,VALID,125,VALID,0.722266,
2008-10-27, 01:27:04,VALID,1011,VALID,0,VALID,94.9178,VALID,0,VALID,23.6356,VALID,134,VALID,0.830469,
2008-10-27, 01:28:04,VALID,1011.02,VALID,0,VALID,94.9254,VALID,0,VALID,23.6161,VALID,146,VALID,0.561719,
2008-10-27, 01:29:04,VALID,1011.02,VALID,0,VALID,94.933,VALID,0,VALID,23.6356,VALID,130,VALID,0.642187,
2008-10-27, 01:30:04,VALID,1010.99,VALID,0,VALID,94.9559,VALID,0,VALID,23.6356,VALID,94,VALID,0.953906,
2008-10-27, 01:31:04,VALID,1010.98,VALID,0,VALID,94.9788,VALID,0,VALID,23.5966,VALID,97,VALID,0.405469,
2008-10-27, 01:32:04,VALID,1010.97,VALID,0,VALID,94.9788,VALID,0,VALID,23.5771,VALID,106,VALID,0.867578,
2008-10-27, 01:33:04,VALID,1010.97,VALID,0,VALID,94.994,VALID,0,VALID,23.5771,VALID,100,VALID,0.728125,
2008-10-27, 01:34:04,VALID,1010.96,VALID,0,VALID,94.9864,VALID,0,VALID,23.5966,VALID,116,VALID,0.317969,
2008-10-27, 01:35:04,VALID,1010.94,VALID,0,VALID,95.0474,VALID,0,VALID,23.6356,VALID,150,VALID,0.578125,
2008-10-27, 01:36:04,VALID,1010.95,VALID,0,VALID,95.0474,VALID,0,VALID,23.6161,VALID,147,VALID,0.511328,
2008-10-27, 01:37:04,VALID,1010.93,VALID,0,VALID,95.0474,VALID,0,VALID,23.5576,VALID,137,VALID,0.236719,
2008-10-27, 01:38:04,VALID,1010.93,VALID,0,VALID,95.0626,VALID,0,VALID,23.5771,VALID,137,VALID,0.195703,
2008-10-27, 01:39:04,VALID,1010.93,VALID,0,VALID,95.0855,VALID,0,VALID,23.6161,VALID,137,VALID,0.219531,
2008-10-27, 01:40:04,VALID,1010.92,VALID,0,VALID,95.0855,VALID,0,VALID,23.6161,VALID,137,VALID,0.312109,
2008-10-27, 01:41:04,VALID,1010.91,VALID,0,VALID,95.0931,VALID,0,VALID,23.5984,VALID,137,VALID,0.19375,
2008-10-27, 01:42:04,VALID,1010.9,VALID,0,VALID,95.1236,VALID,0,VALID,23.5576,VALID,137,VALID,0,
2008-10-27, 01:43:04,VALID,1010.88,VALID,0,VALID,95.1313,VALID,0,VALID,23.5576,VALID,137,VALID,0,
2008-10-27, 01:44:04,VALID,1010.84,VALID,0,VALID,95.1389,VALID,0,VALID,23.5381,VALID,137,VALID,0,
2008-10-27, 01:45:04,VALID,1010.86,VALID,0,VALID,95.1542,VALID,0,VALID,23.5576,VALID,137,VALID,0.124219,
2008-10-27, 01:46:04,VALID,1010.85,VALID,0,VALID,95.1618,VALID,0,VALID,23.5576,VALID,135,VALID,0.328906,
2008-10-27, 01:47:04,VALID,1010.82,VALID,0,VALID,95.1618,VALID,0,VALID,23.5576,VALID,135,VALID,0.349219,
2008-10-27, 01:48:04,VALID,1010.8,VALID,0,VALID,95.177,VALID,0,VALID,23.5771,VALID,135,VALID,0.160938,
2008-10-27, 01:49:04,VALID,1010.78,VALID,0,VALID,95.177,VALID,0,VALID,23.5771,VALID,134,VALID,0.296484,
2008-10-27, 01:50:04,VALID,1010.77,VALID,0,VALID,95.1694,VALID,0,VALID,23.5771,VALID,122,VALID,0.451172,
2008-10-27, 01:51:04,VALID,1010.76,VALID,0,VALID,95.1999,VALID,0,VALID,23.5771,VALID,122,VALID,0.434375,
2008-10-27, 01:52:04,VALID,1010.74,VALID,0,VALID,95.2075,VALID,0,VALID,23.5576,VALID,122,VALID,0.383203,
2008-10-27, 01:53:04,VALID,1010.75,VALID,0,VALID,95.1999,VALID,0,VALID,23.5381,VALID,122,VALID,0.358594,
2008-10-27, 01:54:04,VALID,1010.75,VALID,0,VALID,95.1923,VALID,0,VALID,23.5576,VALID,122,VALID,0.410156,
2008-10-27, 01:55:04,VALID,1010.73,VALID,0,VALID,95.2304,VALID,0,VALID,23.5186,VALID,132,VALID,0.661328,
2008-10-27, 01:56:04,VALID,1010.7,VALID,0,VALID,95.2152,VALID,0,VALID,23.5381,VALID,139,VALID,0.657031,
2008-10-27, 01:57:04,VALID,1010.71,VALID,0,VALID,95.238,VALID,0,VALID,23.5186,VALID,139,VALID,0.629687,
2008-10-27, 01:58:04,VALID,1010.7,VALID,0,VALID,95.2304,VALID,0,VALID,23.4992,VALID,136,VALID,0.776563,
2008-10-27, 01:59:04,VALID,1010.7,VALID,0,VALID,95.238,VALID,0,VALID,23.5186,VALID,125,VALID,0.696484,
2008-10-27, 02:00:04,VALID,1010.7,VALID,0,VALID,95.2304,VALID,0,VALID,23.5186,VALID,126,VALID,0.300781,
2008-10-27, 02:01:04,VALID,1010.69,VALID,0,VALID,95.2457,VALID,0,VALID,23.5186,VALID,156,VALID,0.398828,
2008-10-27, 02:02:04,VALID,1010.68,VALID,0,VALID,95.2533,VALID,0,VALID,23.5381,VALID,155,VALID,0.406641,
2008-10-27, 02:03:04,VALID,1010.68,VALID,0,VALID,95.2609,VALID,0,VALID,23.5186,VALID,124,VALID,0.663281,
2008-10-27, 02:04:04,VALID,1010.69,VALID,0,VALID,95.2685,VALID,0,VALID,23.4992,VALID,114,VALID,0.721484,
2008-10-27, 02:05:04,VALID,1010.69,VALID,0,VALID,95.2762,VALID,0,VALID,23.4797,VALID,124,VALID,0.465625,
2008-10-27, 02:06:04,VALID,1010.66,VALID,0,VALID,95.2762,VALID,0,VALID,23.4602,VALID,125,VALID,0.363281,
2008-10-27, 02:07:04,VALID,1010.66,VALID,0,VALID,95.2762,VALID,0,VALID,23.4602,VALID,125,VALID,0.622266,
2008-10-27, 02:08:04,VALID,1010.69,VALID,0,VALID,95.2838,VALID,0,VALID,23.4602,VALID,126,VALID,0.500781,
2008-10-27, 02:09:04,VALID,1010.68,VALID,0,VALID,95.2838,VALID,0,VALID,23.4389,VALID,136,VALID,0.753516,
2008-10-27, 02:10:04,VALID,1010.66,VALID,0,VALID,95.2914,VALID,0,VALID,23.4797,VALID,145,VALID,0.516797,
2008-10-27, 02:11:04,VALID,1010.66,VALID,0,VALID,95.3372,VALID,0,VALID,23.4797,VALID,148,VALID,0.142969,
2008-10-27, 02:12:04,VALID,1010.65,VALID,0,VALID,95.299,VALID,0,VALID,23.4584,VALID,148,VALID,0.396484,
2008-10-27, 02:13:04,VALID,1010.64,VALID,0,VALID,95.3143,VALID,0,VALID,23.4992,VALID,130,VALID,0.380469,
2008-10-27, 02:14:04,VALID,1010.63,VALID,0,VALID,95.3219,VALID,0,VALID,23.4797,VALID,130,VALID,0.260547,
2008-10-27, 02:15:04,VALID,1010.64,VALID,0,VALID,95.3295,VALID,0,VALID,23.4992,VALID,107,VALID,0.787891,
2008-10-27, 02:16:04,VALID,1010.64,VALID,0,VALID,95.3295,VALID,0,VALID,23.4584,VALID,116,VALID,0.892578,
2008-10-27, 02:17:04,VALID,1010.65,VALID,0,VALID,95.3372,VALID,0,VALID,23.4992,VALID,128,VALID,0.783984,
2008-10-27, 02:18:04,VALID,1010.67,VALID,0,VALID,95.36,VALID,0,VALID,23.4797,VALID,130,VALID,1.09023,
2008-10-27, 02:19:04,VALID,1010.67,VALID,0,VALID,95.3524,VALID,0,VALID,23.4797,VALID,126,VALID,0.798047,
2008-10-27, 02:20:04,VALID,1010.68,VALID,0,VALID,95.3524,VALID,0,VALID,23.4992,VALID,115,VALID,0.56875,
2008-10-27, 02:21:04,VALID,1010.68,VALID,0,VALID,95.3677,VALID,0,VALID,23.5186,VALID,119,VALID,0.682031,
2008-10-27, 02:22:04,VALID,1010.72,VALID,0,VALID,95.36,VALID,0,VALID,23.5186,VALID,129,VALID,0.443359,
2008-10-27, 02:23:04,VALID,1010.74,VALID,0,VALID,95.3677,VALID,0,VALID,23.4992,VALID,132,VALID,0.623047,
2008-10-27, 02:24:04,VALID,1010.77,VALID,0,VALID,95.3677,VALID,0,VALID,23.4779,VALID,170,VALID,0.847266,
2008-10-27, 02:25:04,VALID,1010.79,VALID,0,VALID,95.3677,VALID,0,VALID,23.4992,VALID,167,VALID,0.874609,
2008-10-27, 02:26:04,VALID,1010.8,VALID,0,VALID,95.3753,VALID,0,VALID,23.5186,VALID,167,VALID,0.442578,
2008-10-27, 02:27:04,VALID,1010.82,VALID,0,VALID,95.3677,VALID,0,VALID,23.5186,VALID,161,VALID,0.401172,
2008-10-27, 02:28:04,VALID,1010.79,VALID,0,VALID,95.3829,VALID,0,VALID,23.5186,VALID,146,VALID,0.55,
2008-10-27, 02:29:04,VALID,1010.77,VALID,0,VALID,95.3753,VALID,0,VALID,23.5186,VALID,149,VALID,0.793359,
2008-10-27, 02:30:04,VALID,1010.73,VALID,0,VALID,95.3524,VALID,0,VALID,23.5381,VALID,153,VALID,0.939062,
2008-10-27, 02:31:04,VALID,1010.73,VALID,0,VALID,95.3905,VALID,0,VALID,23.5381,VALID,124,VALID,0.552344,
2008-10-27, 02:32:04,VALID,1010.72,VALID,0,VALID,95.3905,VALID,0,VALID,23.5771,VALID,110,VALID,0.371484,
2008-10-27, 02:33:04,VALID,1010.73,VALID,0,VALID,95.3905,VALID,0,VALID,23.5753,VALID,122,VALID,0.361719,
2008-10-27, 02:34:04,VALID,1010.72,VALID,0,VALID,95.3905,VALID,0,VALID,23.5576,VALID,167,VALID,0.563281,
2008-10-27, 02:35:04,VALID,1010.69,VALID,0,VALID,95.3677,VALID,0,VALID,23.5789,VALID,193,VALID,0.661328,
2008-10-27, 02:36:04,VALID,1010.69,VALID,0,VALID,95.3905,VALID,0,VALID,23.5576,VALID,193,VALID,0.348047,
2008-10-27, 02:37:04,VALID,1010.7,VALID,0,VALID,95.4058,VALID,0,VALID,23.5771,VALID,193,VALID,0.0328125,
2008-10-27, 02:38:04,VALID,1010.68,VALID,0,VALID,95.3905,VALID,0,VALID,23.5576,VALID,193,VALID,0.132031,
2008-10-27, 02:39:04,VALID,1010.7,VALID,0,VALID,95.3829,VALID,0,VALID,23.5576,VALID,193,VALID,0.36875,
2008-10-27, 02:40:04,VALID,1010.7,VALID,0,VALID,95.3829,VALID,0,VALID,23.5576,VALID,198,VALID,0.381641,
2008-10-27, 02:41:04,VALID,1010.71,VALID,0,VALID,95.3982,VALID,0,VALID,23.5381,VALID,198,VALID,0.253906,
2008-10-27, 02:42:04,VALID,1010.73,VALID,0,VALID,95.4058,VALID,0,VALID,23.5381,VALID,198,VALID,0.395312,
2008-10-27, 02:43:04,VALID,1010.74,VALID,0,VALID,95.3982,VALID,0,VALID,23.5576,VALID,192,VALID,0.383203,
2008-10-27, 02:44:04,VALID,1010.73,VALID,0,VALID,95.3829,VALID,0,VALID,23.5381,VALID,191,VALID,0.335156,
2008-10-27, 02:45:04,VALID,1010.72,VALID,0,VALID,95.3982,VALID,0,VALID,23.5576,VALID,191,VALID,0.412891,
2008-10-27, 02:46:04,VALID,1010.69,VALID,0,VALID,95.3829,VALID,0,VALID,23.5169,VALID,189,VALID,0.482031,
2008-10-27, 02:47:04,VALID,1010.7,VALID,0,VALID,95.3905,VALID,0,VALID,23.5381,VALID,185,VALID,0.466797,
2008-10-27, 02:48:04,VALID,1010.67,VALID,0,VALID,95.3905,VALID,0,VALID,23.5381,VALID,155,VALID,0.561328,
2008-10-27, 02:49:04,VALID,1010.65,VALID,0,VALID,95.3905,VALID,0,VALID,23.5771,VALID,155,VALID,0.660547,
2008-10-27, 02:50:04,VALID,1010.64,VALID,0,VALID,95.3829,VALID,0,VALID,23.5576,VALID,147,VALID,0.619531,
2008-10-27, 02:51:04,VALID,1010.62,VALID,0,VALID,95.3753,VALID,0,VALID,23.5381,VALID,143,VALID,0.734766,
2008-10-27, 02:52:04,VALID,1010.63,VALID,0,VALID,95.3677,VALID,0,VALID,23.5381,VALID,120,VALID,0.704297,
2008-10-27, 02:53:04,VALID,1010.61,VALID,0,VALID,95.36,VALID,0,VALID,23.5381,VALID,129,VALID,0.949609,
2008-10-27, 02:54:04,VALID,1010.6,VALID,0,VALID,95.3677,VALID,0,VALID,23.5399,VALID,134,VALID,0.836328,
2008-10-27, 02:55:04,VALID,1010.63,VALID,0,VALID,95.36,VALID,0,VALID,23.5381,VALID,140,VALID,0.606641,
2008-10-27, 02:56:04,VALID,1010.6,VALID,0,VALID,95.3677,VALID,0,VALID,23.5789,VALID,152,VALID,0.803516,
2008-10-27, 02:57:04,VALID,1010.59,VALID,0,VALID,95.3677,VALID,0,VALID,23.5381,VALID,143,VALID,0.506641,
2008-10-27, 02:58:04,VALID,1010.59,VALID,0,VALID,95.3524,VALID,0,VALID,23.5381,VALID,134,VALID,0.517578,
2008-10-27, 02:59:04,VALID,1010.59,VALID,0,VALID,95.36,VALID,0,VALID,23.5381,VALID,140,VALID,0.539844,
2008-10-27, 03:00:04,VALID,1010.6,VALID,0,VALID,95.3524,VALID,0,VALID,23.5186,VALID,125,VALID,0.657422,
2008-10-27, 03:01:04,VALID,1010.62,VALID,0,VALID,95.3448,VALID,0,VALID,23.4992,VALID,115,VALID,0.595312,
2008-10-27, 03:02:04,VALID,1010.63,VALID,0,VALID,95.36,VALID,0,VALID,23.5186,VALID,125,VALID,0.650391,
2008-10-27, 03:03:04,VALID,1010.66,VALID,0,VALID,95.3295,VALID,0,VALID,23.4992,VALID,128,VALID,0.578125,
2008-10-27, 03:04:04,VALID,1010.66,VALID,0,VALID,95.3219,VALID,0,VALID,23.4992,VALID,131,VALID,0.688281,
2008-10-27, 03:05:04,VALID,1010.68,VALID,0,VALID,95.3295,VALID,0,VALID,23.4992,VALID,124,VALID,0.317187,
2008-10-27, 03:06:04,VALID,1010.68,VALID,0,VALID,95.299,VALID,0,VALID,23.5204,VALID,124,VALID,0.637109,
2008-10-27, 03:07:04,VALID,1010.69,VALID,0,VALID,95.3372,VALID,0,VALID,23.4797,VALID,112,VALID,0.429688,
2008-10-27, 03:08:04,VALID,1010.69,VALID,0,VALID,95.3143,VALID,0,VALID,23.4797,VALID,101,VALID,0.661719,
2008-10-27, 03:09:04,VALID,1010.67,VALID,0,VALID,95.2838,VALID,0,VALID,23.4602,VALID,101,VALID,0.580469,
2008-10-27, 03:10:04,VALID,1010.65,VALID,0,VALID,95.299,VALID,0,VALID,23.4797,VALID,95,VALID,0.888281,
2008-10-27, 03:11:04,VALID,1010.61,VALID,0,VALID,95.2762,VALID,0,VALID,23.4797,VALID,95,VALID,0.852734,
2008-10-27, 03:12:04,VALID,1010.58,VALID,0,VALID,95.3067,VALID,0,VALID,23.4602,VALID,108,VALID,0.595312,
2008-10-27, 03:13:04,VALID,1010.57,VALID,0,VALID,95.2685,VALID,0,VALID,23.462,VALID,105,VALID,0.759375,
2008-10-27, 03:14:04,VALID,1010.53,VALID,0,VALID,95.2533,VALID,0,VALID,23.4797,VALID,115,VALID,0.809375,
2008-10-27, 03:15:04,VALID,1010.5,VALID,0,VALID,95.2457,VALID,0,VALID,23.462,VALID,116,VALID,0.532031,
2008-10-27, 03:16:04,VALID,1010.49,VALID,0,VALID,95.2685,VALID,0,VALID,23.4602,VALID,116,VALID,0.346484,
2008-10-27, 03:17:04,VALID,1010.49,VALID,0,VALID,95.2685,VALID,0,VALID,23.4602,VALID,96,VALID,0.485156,
2008-10-27, 03:18:04,VALID,1010.51,VALID,0,VALID,95.2533,VALID,0,VALID,23.4602,VALID,124,VALID,0.582812,
2008-10-27, 03:19:04,VALID,1010.5,VALID,0,VALID,95.2533,VALID,0,VALID,23.4815,VALID,103,VALID,0.342578,
2008-10-27, 03:20:04,VALID,1010.51,VALID,0,VALID,95.2533,VALID,0,VALID,23.4602,VALID,103,VALID,0.193359,
2008-10-27, 03:21:04,VALID,1010.52,VALID,0,VALID,95.2457,VALID,0,VALID,23.4602,VALID,103,VALID,0.286719,
2008-10-27, 03:22:04,VALID,1010.52,VALID,0,VALID,95.238,VALID,0,VALID,23.4602,VALID,103,VALID,0.311328,
2008-10-27, 03:23:04,VALID,1010.54,VALID,0,VALID,95.2457,VALID,0,VALID,23.4602,VALID,103,VALID,0.197656,
2008-10-27, 03:24:04,VALID,1010.58,VALID,0,VALID,95.2152,VALID,0,VALID,23.4602,VALID,103,VALID,0.210547,
2008-10-27, 03:25:04,VALID,1010.58,VALID,0,VALID,95.2152,VALID,0,VALID,23.4602,VALID,68,VALID,0.498437,
2008-10-27, 03:26:04,VALID,1010.59,VALID,0,VALID,95.1999,VALID,0,VALID,23.4407,VALID,75,VALID,0.534375,
2008-10-27, 03:27:04,VALID,1010.58,VALID,0,VALID,95.2228,VALID,0,VALID,23.4602,VALID,75,VALID,0.612109,
2008-10-27, 03:28:04,VALID,1010.55,VALID,0,VALID,95.1999,VALID,0,VALID,23.4407,VALID,99,VALID,0.817969,
2008-10-27, 03:29:04,VALID,1010.54,VALID,0,VALID,95.1923,VALID,0,VALID,23.4602,VALID,99,VALID,0.923828,
2008-10-27, 03:30:04,VALID,1010.55,VALID,0,VALID,95.2075,VALID,0,VALID,23.4602,VALID,103,VALID,0.924609,
2008-10-27, 03:31:04,VALID,1010.57,VALID,0,VALID,95.2075,VALID,0,VALID,23.4602,VALID,101,VALID,0.733203,
2008-10-27, 03:32:04,VALID,1010.56,VALID,0,VALID,95.1999,VALID,0,VALID,23.4602,VALID,102,VALID,0.289844,
2008-10-27, 03:33:04,VALID,1010.54,VALID,0,VALID,95.177,VALID,0,VALID,23.4407,VALID,77,VALID,0.688281,
2008-10-27, 03:34:04,VALID,1010.53,VALID,0,VALID,95.1694,VALID,0,VALID,23.4212,VALID,76,VALID,0.0804688,
2008-10-27, 03:35:04,VALID,1010.53,VALID,0,VALID,95.1694,VALID,0,VALID,23.423,VALID,76,VALID,0,
2008-10-27, 03:36:04,VALID,1010.54,VALID,0,VALID,95.1542,VALID,0,VALID,23.4212,VALID,76,VALID,0.351172,
2008-10-27, 03:37:04,VALID,1010.54,VALID,0,VALID,95.1694,VALID,0,VALID,23.4017,VALID,76,VALID,0.188281,
2008-10-27, 03:38:04,VALID,1010.53,VALID,0,VALID,95.1465,VALID,0,VALID,23.4017,VALID,74,VALID,0.290234,
2008-10-27, 03:39:04,VALID,1010.54,VALID,0,VALID,95.1465,VALID,0,VALID,23.3823,VALID,56,VALID,0.225391,
2008-10-27, 03:40:04,VALID,1010.54,VALID,0,VALID,95.1389,VALID,0,VALID,23.3823,VALID,56,VALID,0,
2008-10-27, 03:41:04,VALID,1010.53,VALID,0,VALID,95.1465,VALID,0,VALID,23.3823,VALID,56,VALID,0,
2008-10-27, 03:42:04,VALID,1010.59,VALID,0,VALID,95.1389,VALID,0,VALID,23.4017,VALID,56,VALID,0,
2008-10-27, 03:43:04,VALID,1010.57,VALID,0,VALID,95.1236,VALID,0,VALID,23.3628,VALID,56,VALID,0,
2008-10-27, 03:44:04,VALID,1010.62,VALID,0,VALID,95.1313,VALID,0,VALID,23.4212,VALID,56,VALID,0,
2008-10-27, 03:45:04,VALID,1010.62,VALID,0,VALID,95.1084,VALID,0,VALID,23.3823,VALID,56,VALID,0,